Location: Little Italy
(37.8008°N, 122.4108°W)
Time: 08:25:11
(UTC+00:00)

Cosmos 1980 Rocket - Pass Details

Date: 29 October 2020
Orbit: 830 x 848 km, 71.0° (Epoch: 02 December)

Event Time Altitude Azimuth Distance (km) Brightness Sun altitude
Exits shadow 12:51:19 - 339° (NNW) 2,934 4.8 -20.5°
Reaches altitude 10° 12:52:36 10° 341° (NNW) 2,443 4.4 -20.3°
Maximum altitude 12:58:13 77° 67° (ENE) 855 2.3 -19.2°
Drops below altitude 10° 13:03:48 10° 154° (SSE) 2,435 5.0 -18.1°
Sets 13:06:14 0° 156° (SSE) 3,368 5.7 -17.6°
